Time,TemperatureF,DewpointF,PressureIn,WindDirection,WindDirectionDegrees,WindSpeedMPH,WindSpeedGustMPH,Humidity,HourlyPrecipIn,Conditions,Clouds,dailyrainin,SoftwareType,DateUTC
2013-03-13 01:03:00,73.0,31.0,29.88,North,0,0.0,0.0,21,0.00,,,0.00,,2013-03-13 08:03:00,
2013-03-13 01:22:00,73.0,31.0,29.87,North,0,0.0,0.0,21,0.00,,,0.00,,2013-03-13 08:22:00,
2013-03-13 01:53:00,73.0,32.0,29.87,North,0,0.0,0.0,22,0.00,,,0.00,,2013-03-13 08:53:00,
2013-03-13 02:01:00,73.0,32.0,29.87,North,0,0.0,0.0,22,0.00,,,0.00,,2013-03-13 09:01:00,
2013-03-13 02:22:00,74.0,29.0,29.86,North,0,0.0,0.0,19,0.00,,,0.00,,2013-03-13 09:22:00,
2013-03-13 02:52:00,74.0,28.0,29.87,North,0,0.0,0.0,18,0.00,,,0.00,,2013-03-13 09:52:00,
2013-03-13 03:01:00,73.0,27.0,29.86,North,0,0.0,0.0,18,0.00,,,0.00,,2013-03-13 10:01:00,
2013-03-13 03:22:00,73.0,26.0,29.86,North,0,0.0,0.0,17,0.00,,,0.00,,2013-03-13 10:22:00,
2013-03-13 03:52:00,73.0,26.0,29.85,North,0,0.0,0.0,17,0.00,,,0.00,,2013-03-13 10:52:00,
2013-03-13 04:01:00,73.0,27.0,29.86,North,0,0.0,0.0,18,0.00,,,0.00,,2013-03-13 11:01:00,
2013-03-13 04:21:00,72.0,27.0,29.85,North,0,0.0,0.0,19,0.00,,,0.00,,2013-03-13 11:21:00,
2013-03-13 04:32:00,72.0,27.0,29.85,North,0,0.0,0.0,19,0.00,,,0.00,,2013-03-13 11:32:00,
2013-03-13 04:41:00,72.0,27.0,29.85,North,0,0.0,0.0,19,0.00,,,0.00,,2013-03-13 11:41:00,
2013-03-13 04:52:00,70.0,27.0,29.84,North,0,0.0,0.0,20,0.00,,,0.00,,2013-03-13 11:52:00,
2013-03-13 05:02:00,71.0,27.0,29.84,North,0,0.0,0.0,19,0.00,,,0.00,,2013-03-13 12:02:00,
2013-03-13 05:12:00,71.0,27.0,29.84,North,0,0.0,0.0,19,0.00,,,0.00,,2013-03-13 12:12:00,
2013-03-13 05:22:00,73.0,26.0,29.85,North,0,0.0,0.0,17,0.00,,,0.00,,2013-03-13 12:22:00,
2013-03-13 05:32:00,73.0,26.0,29.85,North,0,0.0,0.0,17,0.00,,,0.00,,2013-03-13 12:32:00,
2013-03-13 05:52:00,73.0,26.0,29.85,North,0,0.0,0.0,17,0.00,,,0.00,,2013-03-13 12:52:00,
2013-03-13 06:01:00,73.0,26.0,29.85,North,0,0.0,0.0,17,0.00,,,0.00,,2013-03-13 13:01:00,
2013-03-13 06:11:00,73.0,26.0,29.85,North,0,0.0,0.0,17,0.00,,,0.00,,2013-03-13 13:11:00,
2013-03-13 06:21:00,73.0,26.0,29.85,North,0,0.0,0.0,17,0.00,,,0.00,,2013-03-13 13:21:00,
2013-03-13 06:32:00,73.0,26.0,29.85,North,0,0.0,0.0,17,0.00,,,0.00,,2013-03-13 13:32:00,
2013-03-13 06:52:00,73.0,27.0,29.85,North,0,0.0,0.0,18,0.00,,,0.00,,2013-03-13 13:52:00,
2013-03-13 07:01:00,72.0,25.0,29.85,North,0,0.0,0.0,17,0.00,,,0.00,,2013-03-13 14:01:00,
2013-03-13 09:22:00,73.0,26.0,29.88,North,0,0.0,0.0,17,0.00,,,0.00,,2013-03-13 16:22:00,
2013-03-13 09:32:00,73.0,26.0,29.88,North,0,0.0,0.0,17,0.00,,,0.00,,2013-03-13 16:32:00,
2013-03-13 09:41:00,73.0,26.0,29.88,North,0,0.0,0.0,17,0.00,,,0.00,,2013-03-13 16:41:00,
2013-03-13 09:52:00,72.0,27.0,29.88,North,0,0.0,0.0,19,0.00,,,0.00,,2013-03-13 16:52:00,
2013-03-13 10:11:00,73.0,28.0,29.89,North,0,0.0,0.0,19,0.00,,,0.00,,2013-03-13 17:11:00,
2013-03-13 10:22:00,73.0,28.0,29.89,North,0,0.0,0.0,19,0.00,,,0.00,,2013-03-13 17:22:00,
2013-03-13 10:32:00,73.0,28.0,29.89,North,0,0.0,0.0,19,0.00,,,0.00,,2013-03-13 17:32:00,
2013-03-13 10:41:00,73.0,28.0,29.89,North,0,0.0,0.0,19,0.00,,,0.00,,2013-03-13 17:41:00,
2013-03-13 11:02:00,74.0,29.0,29.91,North,0,0.0,0.0,19,0.00,,,0.00,,2013-03-13 18:02:00,
2013-03-13 11:12:00,74.0,29.0,29.91,North,0,0.0,0.0,19,0.00,,,0.00,,2013-03-13 18:12:00,
2013-03-13 11:22:00,76.0,31.0,29.91,North,0,0.0,0.0,19,0.00,,,0.00,,2013-03-13 18:22:00,
2013-03-13 11:32:00,76.0,31.0,29.91,North,0,0.0,0.0,19,0.00,,,0.00,,2013-03-13 18:32:00,
2013-03-13 11:42:00,76.0,31.0,29.91,North,0,0.0,0.0,19,0.00,,,0.00,,2013-03-13 18:42:00,
2013-03-13 11:52:00,76.0,31.0,29.91,North,0,0.0,0.0,19,0.00,,,0.00,,2013-03-13 18:52:00,
2013-03-13 12:01:00,78.0,31.0,29.91,North,0,0.0,0.0,18,0.00,,,0.00,,2013-03-13 19:01:00,
2013-03-13 12:12:00,78.0,31.0,29.91,North,0,0.0,0.0,18,0.00,,,0.00,,2013-03-13 19:12:00,
2013-03-13 12:22:00,78.0,32.0,29.90,North,0,0.0,0.0,19,0.00,,,0.00,,2013-03-13 19:22:00,
2013-03-13 12:32:00,78.0,32.0,29.90,North,0,0.0,0.0,19,0.00,,,0.00,,2013-03-13 19:32:00,
2013-03-13 12:42:00,78.0,32.0,29.90,North,0,0.0,0.0,19,0.00,,,0.00,,2013-03-13 19:42:00,
2013-03-13 12:53:00,80.0,33.0,29.90,North,0,0.0,0.0,18,0.00,,,0.00,,2013-03-13 19:53:00,
2013-03-13 13:01:00,79.0,42.0,29.89,North,0,0.0,0.0,27,0.00,,,0.00,,2013-03-13 20:01:00,
2013-03-13 13:11:00,79.0,42.0,29.89,North,0,0.0,0.0,27,0.00,,,0.00,,2013-03-13 20:11:00,
2013-03-13 13:21:00,78.0,48.0,29.89,North,0,0.0,0.0,35,0.00,,,0.00,,2013-03-13 20:21:00,
2013-03-13 13:32:00,78.0,48.0,29.89,North,0,0.0,0.0,35,0.00,,,0.00,,2013-03-13 20:32:00,
2013-03-13 13:41:00,78.0,48.0,29.89,North,0,0.0,0.0,35,0.00,,,0.00,,2013-03-13 20:41:00,
2013-03-13 13:52:00,77.0,49.0,29.88,North,0,0.0,0.0,38,0.00,,,0.00,,2013-03-13 20:52:00,
2013-03-13 14:01:00,77.0,42.0,29.87,North,0,0.0,0.0,29,0.00,,,0.00,,2013-03-13 21:01:00,
2013-03-13 14:11:00,77.0,42.0,29.87,North,0,0.0,0.0,29,0.00,,,0.00,,2013-03-13 21:11:00,
2013-03-13 14:21:00,76.0,44.0,29.86,North,0,0.0,0.0,32,0.00,,,0.00,,2013-03-13 21:21:00,
2013-03-13 14:32:00,76.0,44.0,29.86,North,0,0.0,0.0,32,0.00,,,0.00,,2013-03-13 21:32:00,
2013-03-13 14:41:00,76.0,44.0,29.86,North,0,0.0,0.0,32,0.00,,,0.00,,2013-03-13 21:41:00,
2013-03-13 14:52:00,76.0,40.0,29.85,North,0,0.0,0.0,27,0.00,,,0.00,,2013-03-13 21:52:00,
2013-03-13 15:01:00,76.0,40.0,29.85,North,0,0.0,0.0,27,0.00,,,0.00,,2013-03-13 22:01:00,
2013-03-13 15:12:00,76.0,40.0,29.85,North,0,0.0,0.0,27,0.00,,,0.00,,2013-03-13 22:12:00,
2013-03-13 15:21:00,74.0,41.0,29.84,North,0,0.0,0.0,30,0.00,,,0.00,,2013-03-13 22:21:00,
2013-03-13 15:32:00,74.0,41.0,29.84,North,0,0.0,0.0,30,0.00,,,0.00,,2013-03-13 22:32:00,
2013-03-13 15:42:00,74.0,41.0,29.84,North,0,0.0,0.0,30,0.00,,,0.00,,2013-03-13 22:42:00,
2013-03-13 15:52:00,75.0,41.0,29.84,North,0,0.0,0.0,29,0.00,,,0.00,,2013-03-13 22:52:00,
2013-03-13 16:01:00,75.0,39.0,29.83,North,0,0.0,0.0,27,0.00,,,0.00,,2013-03-13 23:01:00,
2013-03-13 16:12:00,75.0,39.0,29.83,North,0,0.0,0.0,27,0.00,,,0.00,,2013-03-13 23:12:00,
2013-03-13 16:21:00,77.0,40.0,29.82,North,0,0.0,0.0,27,0.00,,,0.00,,2013-03-13 23:21:00,
2013-03-13 16:32:00,77.0,40.0,29.82,North,0,0.0,0.0,27,0.00,,,0.00,,2013-03-13 23:32:00,
2013-03-13 16:42:00,77.0,40.0,29.82,North,0,0.0,0.0,27,0.00,,,0.00,,2013-03-13 23:42:00,
2013-03-13 16:52:00,76.0,36.0,29.82,North,0,0.0,0.0,23,0.00,,,0.00,,2013-03-13 23:52:00,
2013-03-13 17:01:00,77.0,46.0,29.82,North,0,0.0,0.0,33,0.00,,,0.00,,2013-03-14 00:01:00,
2013-03-13 17:12:00,77.0,46.0,29.82,North,0,0.0,0.0,33,0.00,,,0.00,,2013-03-14 00:12:00,
2013-03-13 17:21:00,76.0,41.0,29.82,North,0,0.0,0.0,29,0.00,,,0.00,,2013-03-14 00:21:00,
2013-03-13 17:32:00,76.0,41.0,29.82,North,0,0.0,0.0,29,0.00,,,0.00,,2013-03-14 00:32:00,
2013-03-13 17:42:00,76.0,41.0,29.82,North,0,0.0,0.0,29,0.00,,,0.00,,2013-03-14 00:42:00,
2013-03-13 17:52:00,76.0,33.0,29.83,North,0,0.0,0.0,21,0.00,,,0.00,,2013-03-14 00:52:00,
2013-03-13 18:03:00,79.0,-99.9,29.83,North,0,0.0,0.0,-999,0.00,,,0.00,,2013-03-14 01:03:00,
2013-03-13 18:12:00,79.0,-99.9,29.83,North,0,0.0,0.0,-999,0.00,,,0.00,,2013-03-14 01:12:00,
2013-03-13 18:21:00,75.0,30.0,29.83,North,0,0.0,0.0,19,0.00,,,0.00,,2013-03-14 01:21:00,
2013-03-13 18:52:00,75.0,29.0,29.83,North,0,0.0,0.0,18,0.00,,,0.00,,2013-03-14 01:52:00,
2013-03-13 19:01:00,75.0,29.0,29.83,North,0,0.0,0.0,18,0.00,,,0.00,,2013-03-14 02:01:00,
2013-03-13 19:22:00,77.0,-99.9,29.83,North,0,0.0,0.0,-999,0.00,,,0.00,,2013-03-14 02:22:00,
2013-03-13 19:33:00,77.0,-99.9,29.83,North,0,0.0,0.0,-999,0.00,,,0.00,,2013-03-14 02:33:00,
2013-03-13 19:42:00,77.0,-99.9,29.83,North,0,0.0,0.0,-999,0.00,,,0.00,,2013-03-14 02:42:00,
2013-03-13 19:52:00,77.0,-99.9,29.83,North,0,0.0,0.0,-999,0.00,,,0.00,,2013-03-14 02:52:00,
2013-03-13 20:01:00,74.0,29.0,29.83,North,0,0.0,0.0,19,0.00,,,0.00,,2013-03-14 03:01:00,
2013-03-13 20:22:00,73.0,31.0,29.83,North,0,0.0,0.0,21,0.00,,,0.00,,2013-03-14 03:22:00,
2013-03-13 20:52:00,74.0,33.0,29.83,North,0,0.0,0.0,22,0.00,,,0.00,,2013-03-14 03:52:00,
2013-03-13 21:01:00,74.0,36.0,29.84,North,0,0.0,0.0,25,0.00,,,0.00,,2013-03-14 04:01:00,
2013-03-13 21:22:00,73.0,39.0,29.84,North,0,0.0,0.0,29,0.00,,,0.00,,2013-03-14 04:22:00,
2013-03-13 21:52:00,72.0,36.0,29.84,North,0,0.0,0.0,27,0.00,,,0.00,,2013-03-14 04:52:00,
2013-03-13 22:01:00,72.0,31.0,29.85,North,0,0.0,0.0,22,0.00,,,0.00,,2013-03-14 05:01:00,
2013-03-13 22:21:00,73.0,31.0,29.85,North,0,0.0,0.0,21,0.00,,,0.00,,2013-03-14 05:21:00,
2013-03-13 22:52:00,73.0,28.0,29.85,North,0,0.0,0.0,19,0.00,,,0.00,,2013-03-14 05:52:00,
2013-03-13 23:01:00,74.0,28.0,29.85,North,0,0.0,0.0,18,0.00,,,0.00,,2013-03-14 06:01:00,
2013-03-13 23:21:00,75.0,29.0,29.85,North,0,0.0,0.0,18,0.00,,,0.00,,2013-03-14 06:21:00,
2013-03-13 23:52:00,76.0,28.0,29.85,North,0,0.0,0.0,17,0.00,,,0.00,,2013-03-14 06:52:00,